When you browse on this site, cookies collect data to enhance your experience and personalize the content and advertising you see.
Visit our Privacy Policy to learn more. By continuing to use the site, you agree to this use of cookies and data.
  • En España
  • Lista de países
  • Para 7 días
  • Temperatura del agua
  • El tiempo en el mapa
  • Informadores
  • user-avatar
    Iniciar sesión

    Tiempo cada hora Lucena

    Hoy, 20 Enero, Lunes

    Tiempo Temperatura Precipitaciones Viento Presión Humedad
    00:00 +1°C° 0 mm 5 mps 715 mmHg 74%
    01:00 +1°C° 0 mm 6 mps 714 mmHg 73%
    02:00 +1°C° 0 mm 6 mps 714 mmHg 72%
    03:00 +1°C° 0 mm 6 mps 714 mmHg 70%
    04:00 +1°C° 0 mm 6 mps 713 mmHg 70%
    05:00 +1°C° 0 mm 6 mps 713 mmHg 70%
    06:00 +1°C° 0 mm 6 mps 713 mmHg 70%
    07:00 0°C° 0 mm 7 mps 713 mmHg 71%
    08:00 0°C° 0 mm 7 mps 712 mmHg 72%
    09:00 +2°C° 0 mm 7 mps 712 mmHg 73%
    10:00 +3°C° 0 mm 7 mps 712 mmHg 69%
    11:00 +5°C° 0 mm 8 mps 713 mmHg 64%
    12:00 +7°C° 0 mm 8 mps 713 mmHg 60%
    13:00 +7°C° 0 mm 8 mps 712 mmHg 58%
    14:00 +9°C° 0 mm 8 mps 712 mmHg 57%
    15:00 +9°C° 0 mm 8 mps 712 mmHg 56%
    16:00 +8°C° 0 mm 6 mps 712 mmHg 61%
    17:00 +7°C° 0 mm 5 mps 712 mmHg 66%
    18:00 +6°C° 0 mm 4 mps 712 mmHg 70%
    19:00 +6°C° 0 mm 4 mps 712 mmHg 72%
    20:00 +5°C° 0 mm 3 mps 712 mmHg 74%
    21:00 +5°C° 0 mm 3 mps 712 mmHg 76%
    22:00 +4°C° 0 mm 3 mps 712 mmHg 78%
    23:00 +5°C° 0 mm 2 mps 712 mmHg 80%

    Mañana, 21 Enero, Martes

    Tiempo Temperatura Precipitaciones Viento Presión Humedad
    00:00 +5°C° 0 mm 2 mps 712 mmHg 82%
    01:00 +5°C° 0 mm 2 mps 712 mmHg 83%
    02:00 +4°C° 0 mm 2 mps 711 mmHg 84%
    03:00 +4°C° 0 mm 2 mps 711 mmHg 85%
    04:00 +4°C° 0 mm 2 mps 711 mmHg 86%
    05:00 +4°C° 0 mm 2 mps 711 mmHg 86%
    06:00 +4°C° 0 mm 2 mps 710 mmHg 87%
    07:00 +4°C° 0 mm 2 mps 711 mmHg 85%
    08:00 +5°C° 0 mm 2 mps 711 mmHg 83%
    09:00 +6°C° 0 mm 2 mps 711 mmHg 82%
    10:00 +7°C° 0 mm 2 mps 711 mmHg 76%
    11:00 +8°C° 0 mm 3 mps 711 mmHg 71%
    12:00 +10°C° 0 mm 3 mps 711 mmHg 66%
    13:00 +9°C° 0 mm 3 mps 710 mmHg 67%
    14:00 +9°C° 0 mm 3 mps 710 mmHg 68%
    15:00 +9°C° 0 mm 3 mps 710 mmHg 70%
    16:00 +9°C° 0.1 mm 2 mps 710 mmHg 73%
    17:00 +9°C° 0.1 mm 1 mps 710 mmHg 77%
    18:00 +8°C° 0.1 mm 1 mps 710 mmHg 81%
    19:00 +8°C° 0.3 mm 1 mps 710 mmHg 82%
    20:00 +7°C° 0.3 mm 2 mps 711 mmHg 83%
    21:00 +7°C° 0.3 mm 2 mps 711 mmHg 84%
    22:00 +7°C° 0.5 mm 2 mps 711 mmHg 85%
    23:00 +7°C° 0.5 mm 2 mps 711 mmHg 87%

    Pasado mañana, 22 Enero, Miércoles

    Tiempo Temperatura Precipitaciones Viento Presión Humedad
    00:00 +6°C° 0.5 mm 2 mps 711 mmHg 88%
    01:00 +6°C° 0.6 mm 2 mps 711 mmHg 88%
    02:00 +6°C° 0.6 mm 2 mps 711 mmHg 88%
    03:00 +6°C° 0.6 mm 2 mps 711 mmHg 89%
    04:00 +6°C° 0.2 mm 2 mps 711 mmHg 89%
    05:00 +6°C° 0.2 mm 2 mps 711 mmHg 89%
    06:00 +6°C° 0.2 mm 2 mps 711 mmHg 89%
    07:00 +6°C° 0.1 mm 2 mps 712 mmHg 86%
    08:00 +6°C° 0.1 mm 2 mps 712 mmHg 83%
    09:00 +7°C° 0.1 mm 2 mps 713 mmHg 80%
    10:00 +8°C° 0 mm 2 mps 713 mmHg 73%
    11:00 +9°C° 0 mm 3 mps 713 mmHg 66%
    12:00 +11°C° 0 mm 3 mps 713 mmHg 59%
    13:00 +11°C° 0 mm 4 mps 713 mmHg 59%
    14:00 +11°C° 0 mm 4 mps 713 mmHg 58%
    15:00 +12°C° 0 mm 5 mps 712 mmHg 57%
    16:00 +10°C° 0.1 mm 4 mps 712 mmHg 64%
    17:00 +8°C° 0.1 mm 4 mps 712 mmHg 70%
    18:00 +7°C° 0.1 mm 4 mps 712 mmHg 76%
    19:00 +7°C° 0.3 mm 4 mps 713 mmHg 78%
    20:00 +7°C° 0.3 mm 4 mps 713 mmHg 80%
    21:00 +6°C° 0.3 mm 4 mps 714 mmHg 82%
    22:00 +7°C° 0.6 mm 3 mps 714 mmHg 83%
    23:00 +7°C° 0.6 mm 3 mps 714 mmHg 85%

    23 Enero, Jueves

    Tiempo Temperatura Precipitaciones Viento Presión Humedad
    00:00 +7°C° 0.6 mm 3 mps 714 mmHg 86%
    01:00 +7°C° 0.5 mm 3 mps 713 mmHg 86%
    02:00 +7°C° 0.5 mm 3 mps 713 mmHg 86%
    03:00 +7°C° 0.5 mm 3 mps 713 mmHg 85%
    04:00 +7°C° 0.3 mm 3 mps 713 mmHg 85%
    05:00 +7°C° 0.3 mm 3 mps 713 mmHg 84%
    06:00 +7°C° 0.3 mm 3 mps 713 mmHg 84%
    07:00 +7°C° 0.3 mm 3 mps 713 mmHg 82%
    08:00 +7°C° 0.3 mm 3 mps 713 mmHg 81%
    09:00 +8°C° 0.3 mm 2 mps 714 mmHg 79%
    10:00 +8°C° 1.5 mm 3 mps 714 mmHg 80%
    11:00 +7°C° 1.5 mm 4 mps 714 mmHg 81%
    12:00 +8°C° 1.5 mm 5 mps 714 mmHg 82%
    13:00 +8°C° 0.3 mm 5 mps 714 mmHg 78%
    14:00 +9°C° 0.3 mm 5 mps 714 mmHg 73%
    15:00 +9°C° 0.3 mm 6 mps 714 mmHg 69%
    16:00 +9°C° 0 mm 5 mps 714 mmHg 72%
    17:00 +9°C° 0 mm 3 mps 714 mmHg 75%
    18:00 +8°C° 0 mm 2 mps 714 mmHg 78%
    19:00 +8°C° 0 mm 2 mps 715 mmHg 79%
    20:00 +7°C° 0 mm 2 mps 715 mmHg 79%
    21:00 +7°C° 0 mm 2 mps 715 mmHg 80%
    22:00 +7°C° 0 mm 2 mps 715 mmHg 80%
    23:00 +7°C° 0 mm 2 mps 716 mmHg 81%

    24 Enero, Viernes

    Tiempo Temperatura Precipitaciones Viento Presión Humedad
    00:00 +6°C° 0 mm 2 mps 716 mmHg 81%
    01:00 +6°C° 0 mm 2 mps 716 mmHg 81%
    02:00 +6°C° 0 mm 2 mps 716 mmHg 82%
    03:00 +6°C° 0 mm 2 mps 715 mmHg 82%
    04:00 +6°C° 0 mm 2 mps 715 mmHg 81%
    05:00 +6°C° 0 mm 2 mps 716 mmHg 81%
    06:00 +6°C° 0 mm 2 mps 716 mmHg 81%
    07:00 +6°C° 0 mm 2 mps 716 mmHg 79%
    08:00 +7°C° 0 mm 2 mps 716 mmHg 77%
    09:00 +8°C° 0 mm 2 mps 716 mmHg 75%
    10:00 +9°C° 0.1 mm 2 mps 716 mmHg 71%
    11:00 +10°C° 0.1 mm 2 mps 716 mmHg 67%
    12:00 +12°C° 0.1 mm 2 mps 716 mmHg 63%
    13:00 +12°C° 0.3 mm 2 mps 716 mmHg 66%
    14:00 +12°C° 0.3 mm 2 mps 716 mmHg 69%
    15:00 +10°C° 0.3 mm 2 mps 715 mmHg 72%
    16:00 +10°C° 0.2 mm 2 mps 716 mmHg 75%
    17:00 +9°C° 0.2 mm 2 mps 716 mmHg 78%
    18:00 +9°C° 0.2 mm 2 mps 716 mmHg 81%
    19:00 +9°C° 0.1 mm 2 mps 716 mmHg 81%
    20:00 +8°C° 0.1 mm 3 mps 716 mmHg 81%
    21:00 +8°C° 0.1 mm 3 mps 716 mmHg 81%
    22:00 +8°C° 0.2 mm 3 mps 716 mmHg 80%
    23:00 +8°C° 0.2 mm 3 mps 716 mmHg 80%

    25 Enero, Sábado

    Tiempo Temperatura Precipitaciones Viento Presión Humedad
    00:00 +8°C° 0.2 mm 2 mps 716 mmHg 79%
    01:00 +8°C° 0 mm 2 mps 716 mmHg 78%
    02:00 +8°C° 0 mm 2 mps 716 mmHg 77%
    03:00 +8°C° 0 mm 2 mps 716 mmHg 76%
    04:00 +8°C° 0 mm 2 mps 716 mmHg 76%
    05:00 +8°C° 0 mm 2 mps 716 mmHg 76%
    06:00 +7°C° 0 mm 2 mps 716 mmHg 75%
    07:00 +8°C° 0 mm 2 mps 716 mmHg 73%
    08:00 +10°C° 0 mm 1 mps 716 mmHg 71%
    09:00 +10°C° 0 mm 1 mps 717 mmHg 69%
    10:00 +12°C° 0 mm 2 mps 717 mmHg 64%
    11:00 +13°C° 0 mm 2 mps 717 mmHg 59%
    12:00 +14°C° 0 mm 2 mps 717 mmHg 54%
    13:00 +14°C° 0 mm 2 mps 717 mmHg 53%
    14:00 +15°C° 0 mm 2 mps 717 mmHg 52%
    15:00 +15°C° 0 mm 2 mps 716 mmHg 50%
    16:00 +14°C° 0.1 mm 1 mps 716 mmHg 57%
    17:00 +12°C° 0.1 mm 1 mps 717 mmHg 64%
    18:00 +10°C° 0.1 mm 0 mps 717 mmHg 71%
    19:00 +10°C° 0 mm 0 mps 717 mmHg 72%
    20:00 +9°C° 0 mm 0 mps 717 mmHg 74%
    21:00 +9°C° 0 mm 0 mps 718 mmHg 76%
    22:00 +8°C° 0 mm 0 mps 718 mmHg 76%
    23:00 +8°C° 0 mm 0 mps 718 mmHg 75%
    Mostrar más